Location: Ferintosh
(52.7647°N, 112.9692°W)
Time: 15:42:35
(UTC+00:00)

Transit 2A - Pass Details

Date: 22 May 2024
Orbit: 592 x 959 km, 66.7° (Epoch: 23 June)

Event Time Altitude Azimuth Distance (km) Brightness Sun altitude
Rises 13:24:00 0° 319° (NW) 3,311 9.0 15.5°
Reaches altitude 10° 13:26:25 10° 325° (NW) 2,433 8.4 15.9°
Maximum altitude 13:31:58 53° 42° (NE) 1,080 7.6 16.7°
Drops below altitude 10° 13:37:58 10° 118° (ESE) 2,630 9.7 17.6°
Sets 13:40:39 0° 124° (ESE) 3,601 10.2 18.0°
